Hourly Data Report for September 04, 2017

All times are specified in Local Standard Time (LST). Add 1 hour to adjust for Daylight Saving Time where and when it is observed.

TORONTO INTL A
ONTARIO

43°40'36.000" N
79°37'50.000" W
173.40 m
6158731
71624
YYZ

Download Data

Hourly Data (September 2017)
Hourly Data Report for September 4, 2017
Temp Definition
°C
Dew Point Temp Definition
°C
Rel Hum Definition
%
Wind Dir Definition
10's deg

Wind Spd Definition
km/h
Visibility Definition
km
Stn Press Definition
kPa
Hmdx Definition


Wind Chill Definition


Weather Definition


TIME
00:00 Legend Double Dagger 14.7 12.5 87 25 13 24.1 99.03     LegendNANA
01:00 Legend Double Dagger 14.7 12.3 86 25 7 24.1 98.99     Clear
02:00 Legend Double Dagger 14.7 12.6 87 25 14 24.1 98.98     LegendNANA
03:00 Legend Double Dagger 14.7 12.1 84 25 13 24.1 98.95     LegendNANA
04:00 Legend Double Dagger 14.9 12.0 83 24 14 24.1 98.95     Mainly Clear
05:00 Legend Double Dagger 14.8 12.0 83 21 10 24.1 98.91     LegendNANA
06:00 Legend Double Dagger 15.5 12.8 84 20 13 24.1 98.90     LegendNANA
07:00 Legend Double Dagger 16.6 13.2 80 19 14 24.1 98.89     Mainly Clear
08:00 Legend Double Dagger 18.4 13.2 71 20 16 24.1 98.84     LegendNANA
09:00 Legend Double Dagger 20.3 13.6 65 22 17 24.1 98.78     LegendNANA
10:00 Legend Double Dagger 23.6 15.1 59 23 26 24.1 98.64 28   Mainly Clear
11:00 Legend Double Dagger 25.2 15.1 53 22 41 24.1 98.51 29   LegendNANA
12:00 Legend Double Dagger 25.7 15.7 53 22 38 24.1 98.39 30   LegendNANA
13:00 Legend Double Dagger 26.6 14.9 48 24 39 24.1 98.34 31   Clear
14:00 Legend Double Dagger 26.6 14.8 48 23 37 19.3 98.24 30   LegendNANA
15:00 Legend Double Dagger 26.6 14.1 46 20 36 19.3 98.07 30   LegendNANA
16:00 Legend Double Dagger 25.8 12.7 44 22 43 19.3 98.01 28   Mostly Cloudy
17:00 Legend Double Dagger 25.5 13.3 46 24 28 24.1 98.09 28   LegendNANA
18:00 Legend Double Dagger 22.3 16.6 70 29 13 6.4 97.99 27   Thunderstorms,Heavy Rain Showers
19:00 Legend Double Dagger 20.1 17.6 85 18 8 16.1 98.02 26   Thunderstorms,Rain Showers
20:00 Legend Double Dagger 19.2 17.7 91 26 20 19.3 98.10     Thunderstorms,Rain Showers
21:00 Legend Double Dagger 19.8 17.8 88 31 26 24.1 98.10     LegendNANA
22:00 Legend Double Dagger 18.3 15.2 82 31 30 24.1 98.26     Mostly Cloudy
23:00 Legend Double Dagger 16.1 13.2 82 31 21 24.1 98.30     LegendNANA

Notes on Data Quality.

Legend

  • E = Estimated
  • M = Missing
  • NA = Not Available
  • ‡ = Partner data that is not subject to review by the National Climate Archives
Date modified: